Location: Doverdale
(52.2833°N, 2.2000°W)
Time: 02:26:53
(UTC+00:00)

Cosmos 1980 Rocket - Pass Details

Date: 10 March 2021
Orbit: 828 x 851 km, 71.0° (Epoch: 15 April)

Event Time Altitude Azimuth Distance (km) Brightness Sun altitude
Rises 00:22:35 0° 329° (NNW) 3,430 6.0 -41.8°
Reaches altitude 10° 00:25:09 10° 335° (NNW) 2,491 5.2 -41.8°
Enters shadow 00:26:44 19° 342° (NNW) 1,941 4.5 -41.8°
